Location: Newark
(42.8481°N, 0.4872°E)
Time: 16:35:16
(UTC+00:00)

Vanguard 1 - Pass Details

Date: 02 November 2020
Orbit: 650 x 3833 km, 34.2° (Epoch: 28 November)

Event Time Altitude Azimuth Distance (km) Brightness Sun altitude
Rises 13:17:35 0° 256° (WSW) 7,305 15.0 28.1°
Reaches altitude 10° 13:22:06 10° 254° (WSW) 6,538 15.0 27.7°
Maximum altitude 13:44:51 68° 178° (S) 3,958 13.9 25.6°
Drops below altitude 10° 14:04:35 10° 102° (ESE) 5,804 13.8 23.5°
Sets 14:08:19 0° 100° (E) 6,491 14.0 23.1°
